Terug naar catalogus

NOAA 17 DEB

ActiefSSO
NORAD 48731·DEBRIS·🇺🇸 United States

Gelanceerd Jun 24, 2002 vanaf Vandenberg Space Force Base

Loading…

Volgende Passages (komende 24 uur)

TLE

VersSource: Space-Track

Epoch: Sep 14, 2026, 10:20 UTC

1 48731U 02032BQ  26257.43074044  .00003815  00000-0  10633-2 0  9990
2 48731  98.8241 245.4405 0032752  18.7243 341.5145 14.46620258286125

Volg NOAA 17 DEB in realtime met AllMySat

Download on the App Store